Location: ????????
(56.0167°N, 38.0333°E)
Time: 03:24:41
(UTC+00:00)

GEOS 3 Rocket - Pass Details

Date: 19 May 2025
Orbit: 782 x 831 km, 115.0° (Epoch: 14 June)

Event Time Altitude Azimuth Distance (km) Brightness Sun altitude
Exits shadow 21:40:50 - 134° (SE) 2,648 5.9 -13.9°
Reaches altitude 10° 21:41:35 10° 134° (SE) 2,347 5.6 -13.9°
Maximum altitude 21:46:41 80° 222° (SW) 811 3.5 -13.9°
Drops below altitude 10° 21:51:52 10° 310° (NW) 2,385 6.5 -13.8°
Sets 21:54:11 0° 312° (NW) 3,326 7.3 -13.7°
